Location: Calvatone
(45.1167°N, 10.4333°E)
Time: 15:38:11
(UTC+00:00)

Okean O Rocket - Pass Details

Date: 28 January 2023
Orbit: 620 x 643 km, 98.1° (Epoch: 30 March)

Event Time Altitude Azimuth Distance (km) Brightness Sun altitude
Exits shadow 17:09:47 - 112° (ESE) 2,423 4.1 -9.1°
Reaches altitude 10° 17:11:13 10° 100° (E) 2,009 3.6 -9.3°
Maximum altitude 17:13:55 16° 61° (ENE) 1,642 3.1 -9.8°
Drops below altitude 10° 17:16:37 10° 23° (NNE) 2,027 3.8 -10.2°
Sets 17:19:32 0° 3° (N) 2,946 4.9 -10.7°
